Hourly Data Report for October 04, 2003

SHERBROOKE A
QUEBEC

45°26'00.000" N
71°41'00.000" W
241.40 m
7028124
71610
YSC

Download Data

Hourly Data (October 2003)
Hourly Data Report for October 4, 2003
TIME
LST
Temp Definition
°C
Dew Point Definition
°C
Rel Hum Definition
%
Precip. Amount Definition
mm

Wind Dir Definition
10's deg

Wind Spd Definition
km/h
Visibility Definition
km
Stn Press Definition
kPa
Hmdx Definition


Wind Chill Definition


Weather Definition


00:00 3.5 -1.7 69   12 6 15.0 98.46      
01:00 4.7 -1.2 66   14 7 15.0 98.43      
02:00 5.6 -0.5 65   14 19 15.0 98.35      
03:00 6.2 -0.7 61   14 15 15.0 98.32      
04:00 7.3 0.3 61   17 15 15.0 98.24      
05:00 7.8 0.8 61   16 22 15.0 98.19      
06:00 8.1 0.7 60   16 17 15.0 98.19      
07:00 8.7 1.2 59   16 20 24.1 98.16     Cloudy
08:00 9.8 2.1 59   16 24 24.1 98.05     Cloudy
09:00 10.7 2.7 58   17 28 24.1 98.02     Cloudy
10:00 10.6 3.8 63   12 9 24.1 97.96     Cloudy
11:00 11.6 4.1 60   18 26 24.1 97.91     Rain
12:00 11.0 4.8 66   16 20 24.1 97.81     Rain
13:00 9.6 6.6 82   16 15 16.1 97.76     Rain
14:00 9.0 7.5 90   16 17 16.1 97.68     Rain
15:00 8.8 7.4 91   18 11 19.3 97.62     Rain
16:00 8.6 7.6 93   18 6 16.1 97.58     Rain
17:00 8.5 7.5 93   17 4 12.9 97.53     Rain
18:00 8.3 7.5 95   20 6 12.9 97.54     Rain
19:00 6.0 5.0 93   28 11 3.7 97.64     Moderate Rain
20:00 5.7 4.9 95   24 7 5.6 97.72     Moderate Rain
21:00 5.5 4.5 93   19 6 15.0 97.75     Rain
22:00 5.7 4.7 93   20 6 15.0 97.76     Rain
23:00 5.7 4.8 94   26 11 11.3 97.79     Rain

Notes on Data Quality.

Legend

  • E = Estimated
  • M = Missing
  • NA = Not Available*
  • [empty] = Indicates an unobserved value
Date modified: